Lapse_Rate
5.7 6.8 7.7 7.3 6.5 6.5 6.5 6.5 6.5 6.5 6.5 6.5 6.2 6.5 6.4 6.1 6.5 6.5 7.1 7.3 6.6 5.1 5.4 5.6 5.7 5.7 6.1 6.2 5.9 5.9 6.0 5.8 5.5 6.1 6.8 8.7 8.7 8.9 9.0 8.7 9.0 8.8 8.7 9.2 7.2 5.6 5.4 5.4 5.8
6.4 9.4 7.4 6.1 6.5 6.5 6.5 6.5 6.5 6.5 6.3 6.7 6.0 6.1 6.5 6.5 6.1 6.4 6.5 7.7 7.0 6.5 5.2 5.6 5.8 6.0 6.1 5.7 5.9 5.9 6.0 5.6 6.0 7.2 9.0 9.2 9.4 9.3 9.4 9.2 8.0 8.4 8.0 8.3 5.8 5.5 5.4 5.2 5.5
6.1 9.3 6.0 6.5 6.5 6.5 6.5 6.5 6.5 6.3 5.8 6.3 6.6 6.6 6.2 6.5 6.9 7.1 7.4 7.7 8.0 7.2 6.6 5.3 5.8 6.3 5.7 5.7 5.7 5.9 5.7 5.8 6.7 8.7 9.2 9.3 8.3 8.0 8.2 8.6 7.8 7.7 8.0 6.7 5.7 5.5 5.5 5.4 6.1
8.0 7.0 6.3 6.5 6.5 6.5 6.5 6.5 6.5 6.5 5.9 6.2 6.8 6.5 5.9 7.2 7.7 7.8 7.8 8.2 8.0 7.9 7.1 5.6 5.8 6.1 5.8 5.7 5.7 5.9 5.5 6.1 8.6 8.9 9.6 8.1 7.8 9.3 8.6 6.0 5.9 6.2 6.3 5.6 5.4 5.4 5.6 6.1 7.1
7.3 6.2 6.5 6.5 6.5 6.5 6.5 6.1 5.9 6.5 6.3 5.9 6.4 6.4 6.4 6.6 8.1 7.6 7.7 8.4 7.6 6.4 6.1 6.0 5.7 5.4 5.7 5.9 6.0 5.6 5.9 7.0 9.2 8.1 8.5 8.4 9.2 7.8 8.5 6.1 6.1 6.3 6.0 5.6 5.6 5.6 5.8 6.5 7.2
6.0 5.9 6.5 6.5 6.5 6.5 6.5 6.0 6.0 6.2 5.8 6.2 6.0 6.5 5.7 6.8 6.9 7.5 7.7 7.1 5.7 6.0 6.3 6.2 6.0 5.7 5.4 5.9 5.7 6.3 8.8 8.7 7.6 8.4 8.4 8.0 8.3 7.7 8.1 6.7 6.6 6.8 6.9 5.7 5.8 5.7 5.9 6.6 7.6
6.4 6.5 6.5 6.5 6.5 6.5 6.5 5.5 6.3 6.1 5.9 5.8 6.6 6.5 5.9 6.8 6.2 6.2 6.1 5.3 5.5 6.1 6.1 6.4 6.1 6.3 5.8 5.8 5.9 8.5 8.7 7.7 8.3 8.9 7.9 7.7 8.2 8.5 7.9 7.8 8.1 7.5 6.8 5.8 5.9 5.8 6.0 7.1 7.4
6.2 6.5 6.5 6.5 6.5 6.5 6.1 5.9 6.1 5.9 6.1 6.6 6.8 6.5 6.2 6.8 6.9 5.5 6.1 5.4 5.5 5.6 6.2 6.6 6.6 6.3 6.0 6.3 8.5 8.6 7.6 8.1 8.3 7.5 8.2 8.1 7.3 5.8 6.1 7.6 7.8 6.2 5.9 5.8 5.6 5.7 6.4 6.8 7.0
7.6 6.5 6.5 6.5 6.5 6.5 5.8 6.5 6.4 6.7 6.6 5.9 7.0 6.5 6.6 5.7 6.2 5.3 4.9 5.2 5.3 5.8 6.2 6.5 6.6 6.6 6.7 7.5 8.4 7.7 7.9 7.6 7.7 7.6 6.7 5.1 5.8 6.0 5.6 5.5 5.3 5.5 5.7 5.6 5.7 5.8 6.4 7.3 8.0
6.4 6.5 6.5 6.5 6.5 6.5 6.2 6.3 6.4 6.4 6.3 6.1 6.5 5.7 5.7 6.3 5.2 5.2 5.7 5.4 5.4 5.7 6.3 6.6 7.5 7.8 7.6 8.1 7.6 7.3 7.1 8.0 7.8 7.4 6.4 6.6 6.4 5.2 4.3 4.5 4.9 5.1 5.3 6.0 6.6 7.0 7.6 8.3 8.4
6.3 6.5 6.5 6.3 6.2 6.4 6.3 6.2 6.5 6.2 6.5 5.7 5.4 5.8 5.0 5.5 6.2 5.6 5.5 5.3 5.9 6.0 7.2 7.9 8.8 8.6 7.9 6.8 7.2 7.5 7.8 8.4 7.5 7.1 7.9 6.9 4.7 4.1 3.7 4.1 4.3 4.6 5.3 6.2 7.1 6.9 7.1 8.5 8.4
6.5 6.4 6.5 6.4 6.1 6.3 6.5 6.3 6.1 5.6 5.8 6.6 6.1 6.3 5.0 4.4 4.5 5.7 5.6 5.3 6.2 6.4 7.1 8.7 8.9 8.5 7.2 6.7 7.8 7.9 8.4 8.3 7.3 7.2 8.2 6.7 5.2 4.3 4.2 4.4 4.9 5.1 5.9 5.2 6.1 6.6 7.4 7.9 8.0
6.5 6.5 6.4 6.3 6.2 6.3 6.5 6.2 6.4 5.8 6.1 6.5 6.6 6.6 6.2 4.6 4.5 5.2 5.0 5.1 5.2 6.3 7.4 8.3 8.4 7.4 6.9 6.6 7.4 7.8 7.7 7.9 7.9 8.2 8.0 7.3 5.3 4.2 5.0 5.3 5.2 5.5 5.9 5.2 4.6 5.0 5.5 5.9 6.9
6.3 6.4 6.4 6.5 6.4 6.4 6.4 6.4 5.9 6.3 6.5 6.5 6.7 5.8 5.7 5.9 4.8 5.5 5.4 5.2 5.2 6.1 6.7 7.8 8.0 7.7 7.1 7.3 7.0 7.3 7.6 7.9 7.9 7.8 8.1 7.9 6.5 5.4 4.9 4.4 4.5 4.9 5.6 5.5 4.9 4.2 3.8 3.7 4.9
6.5 6.5 6.5 6.5 6.4 6.5 6.4 6.5 6.5 6.6 6.6 6.7 6.8 6.5 6.1 5.9 6.1 4.9 5.6 5.5 5.5 5.9 6.2 6.7 7.4 8.1 8.0 7.7 7.3 7.1 7.7 7.7 6.7 7.5 8.4 8.2 7.5 6.3 5.0 3.8 3.2 4.5 5.9 5.7 5.3 4.7 4.4 3.2 4.6
6.5 6.5 6.5 6.5 6.5 6.5 6.3 6.5 6.5 6.8 6.6 6.4 6.4 6.7 6.7 6.1 6.4 6.0 4.7 5.9 5.7 5.6 5.9 6.6 8.1 8.1 7.9 7.1 7.0 7.1 7.4 7.2 6.8 7.2 8.0 8.1 7.4 6.6 4.8 3.1 2.8 4.9 5.1 4.6 3.7 2.9 2.1 2.1 2.2
6.5 6.5 6.5 6.5 6.5 6.5 6.5 6.5 6.5 6.2 6.6 6.4 6.5 6.4 6.5 6.6 6.6 6.1 5.4 5.7 5.2 5.9 6.1 6.5 7.7 8.0 7.6 6.9 7.1 7.4 7.0 7.0 7.0 7.2 7.0 7.5 7.0 6.3 4.7 3.5 3.9 5.1 4.1 3.5 3.6 2.7 2.3 2.1 2.3
6.5 6.5 6.5 6.5 6.5 6.5 6.5 6.5 6.5 6.1 6.3 6.3 6.3 6.4 6.3 6.3 6.3 6.9 5.8 4.4 4.8 6.1 6.0 6.0 6.6 7.5 8.1 7.4 6.9 6.7 7.0 6.3 7.0 6.8 6.5 6.5 6.3 6.1 4.5 4.1 3.9 4.3 2.3 1.7 2.4 2.6 2.8 2.4 2.2
6.5 6.5 6.5 6.5 6.5 6.5 6.5 6.5 6.5 6.5 6.1 6.2 6.1 6.3 6.2 6.1 6.6 6.7 5.7 4.5 4.3 5.3 5.3 4.9 5.4 7.3 7.8 7.5 6.9 6.8 6.8 6.3 5.0 5.9 6.9 6.1 6.1 5.5 4.4 3.2 3.3 3.7 1.5 1.3 1.6 1.0 1.3 1.9 2.2
6.5 6.5 6.5 6.5 6.5 6.5 6.5 6.5 6.5 6.5 6.5 6.2 5.6 5.2 4.9 5.5 6.2 6.7 4.9 4.3 4.7 5.1 5.3 5.6 5.0 5.4 6.8 7.3 6.7 7.0 6.9 6.3 5.0 5.3 6.4 6.6 5.7 5.1 4.3 2.9 2.0 2.2 0.7 1.1 1.1 0.8 0.2 -0.1 0.5
6.5 6.5 6.5 6.5 6.5 6.5 6.5 6.5 6.5 6.5 6.3 6.2 6.3 6.4 6.2 4.9 5.9 6.6 6.2 4.9 5.9 5.9 5.0 6.0 6.1 6.0 7.1 7.8 7.1 6.1 5.5 4.2 4.1 4.2 4.0 5.4 5.6 4.8 4.3 3.5 2.2 1.6 0.9 -0.0 0.4 0.3 0.5 -0.9 -0.1
6.5 6.5 6.5 6.5 6.5 6.5 6.5 6.5 6.5 6.5 6.5 6.5 6.2 6.0 5.7 5.8 6.1 6.7 6.2 4.4 6.2 6.1 5.4 5.6 5.8 5.3 5.6 6.5 7.3 7.0 6.4 5.5 4.1 3.7 3.4 3.7 5.4 4.3 3.9 3.5 2.7 1.2 0.6 -0.5 0.1 0.8 0.1 -0.5 -0.6
6.5 6.5 6.5 6.5 6.5 6.5 6.5 6.5 6.5 6.5 6.5 6.5 6.5 6.0 5.2 5.6 5.1 5.2 6.4 4.6 4.2 5.0 4.7 4.9 5.3 4.7 5.1 5.3 6.1 5.7 6.0 5.0 3.9 2.8 2.9 3.5 3.9 4.0 3.4 2.7 1.9 0.8 0.4 -0.2 -0.5 -0.3 -0.3 0.0 -0.4
6.5 6.5 6.5 6.5 6.5 6.5 6.5 6.5 6.5 6.5 6.5 6.5 6.5 6.2 6.3 5.9 5.6 5.9 5.3 5.1 3.8 3.8 4.5 5.2 4.5 4.7 4.9 5.3 5.2 6.1 5.0 4.5 3.4 3.4 2.8 2.2 1.7 1.9 2.5 2.2 1.1 0.9 0.1 -0.9 -0.9 -0.5 -0.4 -0.4 -0.3
6.5 6.5 6.5 6.5 6.5 6.5 6.5 6.5 6.5 6.5 6.5 6.5 6.5 5.5 5.6 6.1 6.1 5.9 5.9 5.0 4.7 3.9 4.6 5.3 4.6 4.4 4.5 5.3 5.3 4.7 4.8 5.2 3.1 2.9 2.9 2.4 1.7 1.5 1.2 1.4 0.4 -0.2 0.1 0.3 0.3 -0.6 -0.6 -0.2 -0.3
6.5 6.5 6.5 6.5 6.5 6.5 6.5 6.5 6.5 6.5 6.5 5.9 5.6 6.2 5.9 5.0 5.9 5.9 6.4 5.6 4.7 4.0 4.0 5.0 4.8 4.6 5.0 5.2 4.2 4.8 4.9 4.2 4.3 3.4 2.3 2.2 1.5 0.9 1.4 1.2 0.8 0.4 0.5 0.6 0.5 -0.3 -0.9 -0.6 -0.9
6.5 6.5 6.5 6.5 6.5 6.5 6.5 6.5 6.5 6.5 6.5 6.5 6.5 5.1 4.2 4.6 4.9 5.8 6.2 5.6 5.3 4.0 4.3 4.4 4.7 5.0 4.8 5.2 5.1 5.1 4.3 6.0 5.1 4.0 2.4 1.6 1.4 1.2 0.6 1.0 0.9 0.8 0.7 0.8 0.6 -0.6 -0.6 -0.6 -0.6
6.5 6.5 6.5 6.5 6.5 6.5 6.5 6.5 6.5 6.5 6.5 6.5 6.5 6.5 4.8 4.1 4.5 4.9 6.0 6.3 5.6 4.1 4.5 4.1 4.5 5.3 4.8 5.1 5.3 5.5 5.0 5.2 5.7 4.3 3.4 2.0 1.6 1.7 0.9 0.5 1.4 1.3 1.3 1.0 0.3 -0.6 0.1 0.0 -0.1
6.5 6.5 6.5 6.5 6.5 6.5 6.5 6.5 6.5 6.5 6.5 6.5 6.5 5.4 5.1 4.9 4.6 4.7 4.8 6.2 5.6 5.3 5.4 4.9 5.3 5.4 5.4 5.7 6.1 5.9 5.4 4.4 5.0 4.7 3.9 2.6 1.5 1.2 1.0 1.1 1.2 1.4 0.9 0.7 0.1 0.0 0.2 0.4 0.5
6.5 6.5 6.5 6.5 6.5 6.5 6.5 6.5 6.5 6.5 6.5 6.5 6.5 5.5 5.8 5.7 5.3 4.7 4.5 5.9 6.1 5.5 5.8 6.0 5.6 5.9 6.1 6.0 5.7 5.5 4.4 4.1 4.7 4.3 4.1 2.8 1.8 1.1 0.7 1.1 1.1 1.4 1.3 0.9 0.7 1.1 0.7 0.6 0.9
Wind_Speed
10 13 6 3 4 5 11 12 15 18 5 4 6 3 4 2 2 4 8 9 22 20 23 23 24 24 25 24 23 21 20 19 18 17 17 17 17 17 18 18 18 17 19 19 19 18 18 17 16
10 3 2 3 5 11 9 16 18 16 3 5 8 8 4 5 8 6 6 17 21 19 23 21 24 25 27 25 23 22 20 19 18 18 16 15 17 17 18 18 18 18 19 19 19 19 19 18 17
7 4 2 4 7 14 9 14 17 17 8 7 3 3 7 5 9 9 9 18 20 18 21 24 26 27 26 25 24 22 21 19 18 17 17 16 17 17 18 18 17 17 18 19 19 18 19 18 19
4 2 4 5 13 14 20 17 20 11 6 7 3 2 6 5 6 7 12 15 20 18 23 27 30 27 24 23 23 22 22 20 17 17 17 17 16 17 17 17 16 18 18 19 18 19 18 18 17
3 3 5 7 15 16 14 13 12 12 5 8 5 4 5 5 6 9 11 13 17 16 22 25 29 29 25 23 22 21 21 20 19 18 18 17 17 17 17 16 16 18 19 19 18 20 18 17 17
3 3 5 11 15 15 15 17 16 6 9 5 8 2 6 9 8 7 9 15 18 16 20 23 26 28 27 24 22 20 19 19 20 19 19 17 18 16 17 16 17 18 19 18 19 20 18 17 19
6 4 8 12 13 13 11 10 8 8 8 9 7 6 5 8 8 6 12 14 17 17 16 19 22 24 25 24 21 20 19 19 18 18 19 18 16 16 16 16 18 18 19 19 20 19 17 16 17
3 4 9 9 14 17 10 6 6 6 6 7 4 4 5 11 9 7 9 11 14 15 15 14 18 20 20 19 23 21 22 19 18 20 20 18 17 17 16 16 17 18 19 19 20 18 16 14 17
3 5 8 12 15 12 8 3 5 3 2 5 4 5 11 15 11 8 6 8 10 11 14 14 14 19 18 18 21 23 23 24 22 20 21 19 18 17 14 19 18 18 19 19 19 17 15 16 16
9 6 11 10 10 9 7 5 3 4 5 5 5 12 12 14 12 12 11 8 14 14 14 14 14 15 19 16 18 18 21 18 15 18 19 17 18 18 18 19 18 18 18 18 18 19 17 14 12
11 10 12 11 8 3 6 7 5 6 8 8 10 8 17 13 12 12 13 10 13 14 12 15 15 18 17 14 14 13 14 16 17 20 14 19 19 19 18 17 17 18 15 13 9 6 4 14 17
13 16 17 14 6 5 8 6 9 11 12 6 9 7 16 14 15 15 14 13 14 14 12 16 15 14 17 17 12 13 12 13 13 16 19 17 12 16 14 12 13 11 11 13 12 13 15 17 18
28 15 12 13 13 6 7 11 11 10 11 9 8 6 6 16 15 13 15 13 12 14 11 15 14 17 14 13 13 13 8 12 15 14 21 21 14 9 13 13 10 11 14 15 12 13 14 15 16
9 23 25 20 15 14 14 14 10 7 13 13 14 10 9 10 17 13 14 13 14 12 11 14 14 16 17 13 14 10 12 14 16 15 19 22 18 14 13 10 10 9 15 17 16 13 12 12 16
24 18 16 18 19 10 15 21 30 17 13 19 16 13 12 11 14 18 19 16 17 12 13 9 15 14 15 11 10 9 14 13 11 14 19 20 20 17 15 11 8 11 12 17 17 15 15 10 13
15 16 22 31 19 22 11 24 17 24 22 22 15 16 14 14 13 14 17 17 17 14 16 11 12 14 13 9 8 9 12 13 12 14 17 21 20 21 16 10 9 15 14 14 12 8 5 5 5
20 24 30 24 19 13 23 24 16 16 22 23 21 16 15 16 15 12 17 17 17 16 17 14 14 15 15 11 8 11 12 11 12 15 15 20 21 20 17 12 12 15 12 10 7 3 4 4 5
29 30 26 20 19 21 24 30 12 11 18 23 20 18 17 15 16 14 18 18 18 17 19 15 13 12 15 11 8 7 7 7 15 10 12 20 18 20 18 14 13 14 7 5 5 5 4 4 5
25 23 16 18 22 21 22 28 20 18 16 15 17 19 19 17 15 13 18 19 19 17 15 17 9 16 13 11 9 9 8 6 5 10 13 18 18 19 18 12 13 13 6 5 6 4 6 4 4
28 27 26 23 16 23 22 25 17 16 22 15 10 10 10 13 17 17 15 20 21 20 19 17 17 13 10 10 7 8 8 6 5 10 13 12 18 20 15 12 7 10 5 7 6 5 3 3 3
26 24 26 24 15 15 18 22 19 19 16 16 18 18 15 10 15 18 15 22 20 21 21 18 18 15 13 14 9 6 7 5 4 4 4 7 16 18 17 15 13 10 7 5 5 6 6 4 3
26 26 20 28 17 13 8 7 15 18 20 20 17 17 15 14 12 17 17 21 20 19 18 19 17 16 12 12 14 15 10 11 5 5 4 5 13 14 19 17 15 12 10 6 5 6 4 5 5
28 27 21 23 19 15 12 7 7 11 23 25 20 17 12 14 10 10 18 22 23 21 19 19 18 18 16 14 11 13 14 8 8 7 8 7 7 11 16 18 17 11 10 7 7 6 6 3 3
25 24 24 20 11 18 24 14 18 9 18 15 18 24 23 18 15 14 10 21 21 19 19 18 19 21 18 15 16 15 16 15 12 10 7 5 4 5 10 15 16 15 12 8 8 9 7 6 5
28 22 11 11 13 12 19 15 15 9 13 18 13 10 18 21 19 18 16 15 21 21 21 16 21 21 21 19 19 18 16 15 19 16 12 12 7 4 6 11 11 11 15 14 14 8 7 6 5
21 25 9 15 7 8 14 9 7 25 19 5 6 2 1 17 18 18 19 14 22 22 22 20 21 22 22 20 20 18 18 14 13 15 12 10 9 7 9 11 13 17 18 15 14 8 6 7 5
4 19 20 5 3 0 6 4 3 12 16 8 5 7 8 7 11 16 18 13 20 22 22 22 22 22 23 22 19 18 18 15 14 15 16 11 10 8 11 13 12 14 16 16 13 5 6 6 5
7 5 11 7 5 6 6 8 5 15 9 10 9 4 6 9 9 9 16 18 18 22 20 22 23 23 25 23 20 16 18 18 13 13 15 16 14 13 12 11 12 12 13 14 12 6 8 6 4
6 5 7 3 2 1 3 4 11 12 11 10 10 9 8 8 5 10 9 15 18 20 21 21 22 21 22 22 19 17 17 18 15 14 14 16 17 16 14 13 12 10 9 12 8 7 7 7 6
8 11 10 4 4 1 3 2 13 15 12 9 9 7 6 7 7 7 5 13 19 21 20 21 21 21 22 22 21 18 17 17 16 17 16 14 16 16 17 12 13 11 9 9 9 8 7 8 6
Wind_Direction
281 253 244 298 240 227 237 227 253 273 308 356 31 359 343 281 19 159 145 157 127 133 142 146 145 142 138 128 125 122 118 117 116 112 110 107 103 102 102 98 96 93 96 92 87 83 83 85 87
291 257 305 257 239 241 235 228 250 234 205 50 53 347 340 97 75 131 136 128 128 136 144 146 145 138 132 131 130 126 123 122 119 115 112 108 106 103 99 98 96 95 98 94 88 82 81 81 85
256 242 215 201 236 234 248 256 217 242 150 124 117 37 323 67 102 144 145 132 131 136 151 143 140 135 131 134 131 129 127 126 122 118 112 111 108 107 102 98 97 98 100 95 89 86 84 83 86
212 188 274 247 239 229 245 271 282 273 115 140 226 198 83 345 121 139 126 140 135 147 133 139 137 132 134 133 133 132 132 129 125 121 119 112 111 107 104 100 100 100 99 95 91 91 88 89 81
254 253 236 230 247 260 267 244 255 259 296 159 202 195 100 67 67 124 136 146 128 116 129 135 136 131 135 133 134 134 133 129 127 125 119 118 114 108 108 107 106 103 102 96 96 97 94 86 70
243 246 237 234 246 244 240 258 273 271 275 237 152 222 106 114 89 150 155 123 117 125 131 136 135 134 136 136 137 137 135 134 131 130 122 119 115 113 112 110 108 105 102 100 102 99 94 81 68
241 242 240 261 273 272 235 224 241 248 260 258 152 185 103 122 128 60 94 113 126 129 133 136 136 135 135 138 139 139 136 135 135 125 120 114 119 118 114 113 110 107 104 104 104 100 96 85 73
244 241 253 243 248 262 271 263 284 278 272 284 42 212 147 130 129 98 92 115 121 130 134 138 136 135 139 143 142 137 137 133 125 120 119 123 120 108 112 109 110 110 108 106 104 102 95 75 61
251 251 223 229 235 239 250 298 153 309 39 329 3 42 98 120 102 114 105 116 124 142 141 142 148 142 142 137 136 137 125 122 124 120 125 119 123 118 102 104 104 107 110 108 109 109 95 80 71
208 224 218 231 229 249 259 171 253 235 184 262 258 110 117 129 139 152 164 154 152 151 155 153 158 150 147 135 135 129 132 133 135 136 155 142 123 111 99 104 108 112 112 117 122 123 109 93 76
213 236 233 254 242 317 288 189 210 249 244 200 210 206 146 159 162 173 177 171 165 163 170 164 162 154 137 136 137 137 144 148 149 166 175 109 107 106 109 109 118 121 126 126 127 157 179 93 81
241 227 243 265 275 196 240 271 245 209 232 226 244 215 166 166 175 179 182 171 167 172 180 166 159 140 138 139 146 158 164 154 155 184 129 125 127 129 148 147 153 151 128 94 79 67 73 85 87
224 230 229 235 264 259 237 229 242 253 241 241 252 218 181 172 180 177 183 180 172 176 171 167 158 139 147 150 155 177 167 145 151 171 131 140 144 150 145 143 138 128 125 113 98 83 74 73 78
217 224 234 239 244 233 233 235 233 205 248 257 218 218 201 184 180 176 177 178 185 177 176 164 157 150 154 167 168 180 140 149 149 144 146 146 154 143 137 135 131 128 132 135 124 111 97 83 79
251 257 253 233 219 219 219 244 234 224 248 225 237 211 203 205 187 178 184 178 178 182 173 179 158 153 160 165 151 140 150 142 137 147 151 151 141 135 135 129 123 122 122 127 127 119 111 100 95
242 246 250 241 206 221 180 254 221 221 218 234 216 223 218 201 207 179 178 187 183 178 168 184 169 163 158 152 146 139 158 137 142 151 152 139 138 139 131 127 131 134 124 119 117 119 111 111 110
233 233 228 245 209 198 206 249 229 257 210 220 223 212 214 212 212 186 172 179 181 179 175 173 177 170 162 158 151 149 145 139 144 145 145 140 142 140 132 132 142 141 136 130 135 123 123 113 107
217 229 232 242 209 210 210 237 244 267 225 213 219 218 210 206 204 205 173 168 176 184 175 175 174 179 165 156 150 143 141 139 136 144 145 141 143 144 134 137 133 127 114 108 109 119 114 127 132
242 246 242 237 225 207 213 238 217 227 259 214 206 211 212 207 197 198 174 168 172 179 177 166 185 181 171 164 160 152 152 141 129 138 148 143 148 140 139 138 130 134 128 134 118 109 99 67 109
248 242 249 243 229 224 220 237 227 219 234 241 237 248 212 200 190 191 171 170 175 177 179 182 171 174 180 168 157 154 142 134 125 127 138 150 141 140 139 136 136 130 117 118 122 112 106 84 55
246 240 233 245 267 212 227 236 219 228 240 230 224 224 234 211 193 191 184 171 178 181 179 182 181 172 173 167 146 134 112 91 85 107 113 136 142 139 139 133 125 122 122 129 131 139 130 135 39
244 240 250 238 225 243 205 252 214 229 235 238 236 229 220 216 216 190 179 169 180 185 175 179 174 164 167 164 156 157 154 144 142 132 130 128 139 136 134 131 124 118 118 112 117 116 127 121 133
243 248 239 245 225 227 220 246 222 216 220 228 229 223 217 210 204 213 189 172 177 179 176 175 173 165 161 157 166 154 145 148 139 126 127 125 115 130 129 126 122 117 118 112 107 95 96 106 118
241 245 250 263 224 232 214 209 252 204 223 226 216 220 210 202 204 206 203 171 176 172 170 174 165 166 165 160 155 165 144 153 141 141 136 131 123 125 128 128 124 120 114 109 108 103 96 99 89
227 228 226 235 229 238 223 212 228 200 219 222 229 194 192 200 202 202 206 176 170 171 170 165 167 168 166 168 159 154 151 168 151 156 153 149 146 145 152 136 127 120 118 115 113 107 104 103 105
238 213 217 210 168 233 196 207 224 224 253 266 293 215 227 183 192 197 203 193 173 169 173 164 170 170 171 167 165 168 164 162 162 165 155 155 156 150 142 134 129 129 126 122 117 106 107 106 99
259 208 216 299 103 105 159 304 243 226 223 215 248 207 228 228 202 198 195 189 166 169 174 166 168 169 170 171 170 165 160 165 168 166 155 149 146 144 136 135 136 134 128 127 124 117 111 106 102
315 328 183 205 208 196 191 182 165 187 169 186 214 227 235 208 218 193 193 193 173 170 170 167 166 174 171 170 172 166 161 155 167 160 158 149 147 146 140 135 139 137 134 130 125 120 120 115 115
332 4 203 191 206 29 123 185 174 94 79 86 73 47 18 6 216 198 190 186 167 162 169 168 167 172 177 175 174 162 163 154 163 166 161 157 147 147 144 143 139 140 136 127 123 123 124 122 117
31 37 11 201 123 144 58 14 102 75 67 64 72 64 49 24 11 354 207 178 167 164 169 172 171 178 178 176 175 171 166 165 168 166 162 156 152 151 144 143 139 140 137 133 133 134 130 129 125